Time,TemperatureF,DewpointF,PressureIn,WindDirection,WindDirectionDegrees,WindSpeedMPH,WindSpeedGustMPH,Humidity,HourlyPrecipIn,Conditions,Clouds,dailyrainin,SolarRadiationWatts/m^2,SoftwareType,DateUTC
2013-05-12 00:01:00,55.0,30.0,-100.00,WSW,252,6.0,11.0,38,0.00,,,0.00,0.000000,,2013-05-12 06:01:00,
2013-05-12 00:32:00,55.0,31.0,-100.00,WSW,258,6.0,11.0,40,0.00,,,0.00,0.000000,,2013-05-12 06:32:00,
2013-05-12 00:42:00,55.0,31.0,-100.00,WSW,258,6.0,11.0,40,0.00,,,0.00,0.000000,,2013-05-12 06:42:00,
2013-05-12 00:52:00,55.0,31.0,-100.00,WSW,258,6.0,11.0,40,0.00,,,0.00,0.000000,,2013-05-12 06:52:00,
2013-05-12 01:01:00,55.0,31.0,-100.00,WSW,258,6.0,11.0,40,0.00,,,0.00,0.000000,,2013-05-12 07:01:00,
2013-05-12 01:32:00,55.0,31.0,-100.00,South,180,9.0,12.0,40,0.00,,,-99.99,0.000000,,2013-05-12 07:32:00,
2013-05-12 01:42:00,55.0,31.0,-100.00,South,180,9.0,12.0,40,0.00,,,-99.99,0.000000,,2013-05-12 07:42:00,
2013-05-12 01:52:00,55.0,31.0,-100.00,South,180,9.0,12.0,40,0.00,,,-99.99,0.000000,,2013-05-12 07:52:00,
2013-05-12 02:02:00,55.0,31.0,-100.00,South,180,9.0,12.0,40,0.00,,,-99.99,0.000000,,2013-05-12 08:02:00,
2013-05-12 02:32:00,55.0,33.0,-100.00,SW,214,8.0,12.0,43,-99.99,,,0.00,0.000000,,2013-05-12 08:32:00,
2013-05-12 02:42:00,55.0,33.0,-100.00,SW,214,8.0,12.0,43,-99.99,,,0.00,0.000000,,2013-05-12 08:42:00,
2013-05-12 02:53:00,55.0,33.0,-100.00,SW,214,8.0,12.0,43,-99.99,,,0.00,0.000000,,2013-05-12 08:53:00,
2013-05-12 03:01:00,55.0,33.0,-100.00,SW,214,8.0,12.0,43,-99.99,,,0.00,0.000000,,2013-05-12 09:01:00,
2013-05-12 03:33:00,53.0,32.0,-100.00,SSW,207,7.0,10.0,45,0.00,,,0.00,0.000000,,2013-05-12 09:33:00,
2013-05-12 03:43:00,53.0,32.0,-100.00,SSW,207,7.0,10.0,45,0.00,,,0.00,0.000000,,2013-05-12 09:43:00,
2013-05-12 03:53:00,53.0,32.0,-100.00,SSW,207,7.0,10.0,45,0.00,,,0.00,0.000000,,2013-05-12 09:53:00,
2013-05-12 04:02:00,53.0,32.0,-100.00,SSW,207,7.0,10.0,45,0.00,,,0.00,0.000000,,2013-05-12 10:02:00,
2013-05-12 04:33:00,54.0,34.0,-100.00,WSW,243,10.0,13.0,47,0.00,,,0.00,0.000000,,2013-05-12 10:33:00,
2013-05-12 04:42:00,54.0,34.0,-100.00,WSW,243,10.0,13.0,47,0.00,,,0.00,0.000000,,2013-05-12 10:42:00,
2013-05-12 04:52:00,54.0,34.0,-100.00,WSW,243,10.0,13.0,47,0.00,,,0.00,0.000000,,2013-05-12 10:52:00,
2013-05-12 05:02:00,54.0,34.0,-100.00,WSW,243,10.0,13.0,47,0.00,,,0.00,0.000000,,2013-05-12 11:02:00,
2013-05-12 05:32:00,54.0,35.0,-100.00,SW,234,9.0,14.0,48,0.00,,,0.00,0.000000,,2013-05-12 11:32:00,
2013-05-12 05:42:00,54.0,35.0,-100.00,SW,234,9.0,14.0,48,0.00,,,0.00,0.000000,,2013-05-12 11:42:00,
2013-05-12 05:52:00,54.0,35.0,-100.00,SW,234,9.0,14.0,48,0.00,,,0.00,0.000000,,2013-05-12 11:52:00,
2013-05-12 06:01:00,54.0,35.0,-100.00,SW,234,9.0,14.0,48,0.00,,,0.00,0.000000,,2013-05-12 12:01:00,
2013-05-12 07:32:00,54.0,34.0,-100.00,South,185,6.0,9.0,46,-99.99,,,0.00,50.000000,,2013-05-12 13:32:00,
2013-05-12 07:42:00,54.0,34.0,-100.00,South,185,6.0,9.0,46,-99.99,,,0.00,50.000000,,2013-05-12 13:42:00,
2013-05-12 07:52:00,54.0,34.0,-100.00,South,185,6.0,9.0,46,-99.99,,,0.00,50.000000,,2013-05-12 13:52:00,
2013-05-12 08:01:00,54.0,34.0,-100.00,South,185,6.0,9.0,46,-99.99,,,0.00,50.000000,,2013-05-12 14:01:00,
2013-05-12 08:32:00,56.0,34.0,-100.00,South,185,6.0,8.0,44,0.00,,,0.00,212.000000,,2013-05-12 14:32:00,
2013-05-12 08:42:00,56.0,34.0,-100.00,South,185,6.0,8.0,44,0.00,,,0.00,212.000000,,2013-05-12 14:42:00,
2013-05-12 08:52:00,56.0,34.0,-100.00,South,185,6.0,8.0,44,0.00,,,0.00,212.000000,,2013-05-12 14:52:00,
2013-05-12 09:01:00,56.0,34.0,-100.00,South,185,6.0,8.0,44,0.00,,,0.00,212.000000,,2013-05-12 15:01:00,
2013-05-12 09:34:00,58.0,34.0,-100.00,South,172,8.0,12.0,41,0.00,,,-99.99,411.000000,,2013-05-12 15:34:00,
2013-05-12 09:42:00,58.0,34.0,-100.00,South,172,8.0,12.0,41,0.00,,,-99.99,411.000000,,2013-05-12 15:42:00,
2013-05-12 09:53:00,58.0,34.0,-100.00,South,172,8.0,12.0,41,0.00,,,-99.99,411.000000,,2013-05-12 15:53:00,
2013-05-12 10:02:00,58.0,34.0,-100.00,South,172,8.0,12.0,41,0.00,,,-99.99,411.000000,,2013-05-12 16:02:00,
2013-05-12 10:33:00,61.0,36.0,-100.00,South,175,8.0,11.0,39,0.00,,,0.00,649.000000,,2013-05-12 16:33:00,
2013-05-12 10:42:00,61.0,36.0,-100.00,South,175,8.0,11.0,39,0.00,,,0.00,649.000000,,2013-05-12 16:42:00,
2013-05-12 10:52:00,61.0,36.0,-100.00,South,175,8.0,11.0,39,0.00,,,0.00,649.000000,,2013-05-12 16:52:00,
2013-05-12 11:01:00,61.0,36.0,-100.00,South,175,8.0,11.0,39,0.00,,,0.00,649.000000,,2013-05-12 17:01:00,
2013-05-12 11:32:00,63.0,36.0,-100.00,South,172,8.0,14.0,37,0.00,,,-99.99,787.000000,,2013-05-12 17:32:00,
2013-05-12 11:42:00,63.0,36.0,-100.00,South,172,8.0,14.0,37,0.00,,,-99.99,787.000000,,2013-05-12 17:42:00,
2013-05-12 11:52:00,63.0,36.0,-100.00,South,172,8.0,14.0,37,0.00,,,-99.99,787.000000,,2013-05-12 17:52:00,
2013-05-12 12:01:00,63.0,36.0,-100.00,South,172,8.0,14.0,37,0.00,,,-99.99,787.000000,,2013-05-12 18:01:00,
2013-05-12 12:32:00,66.0,37.0,-100.00,SW,222,8.0,13.0,34,0.00,,,0.00,829.000000,,2013-05-12 18:32:00,
2013-05-12 12:42:00,66.0,37.0,-100.00,SW,222,8.0,13.0,34,0.00,,,0.00,829.000000,,2013-05-12 18:42:00,
2013-05-12 12:52:00,66.0,37.0,-100.00,SW,222,8.0,13.0,34,0.00,,,0.00,829.000000,,2013-05-12 18:52:00,
2013-05-12 13:01:00,66.0,37.0,-100.00,SW,222,8.0,13.0,34,0.00,,,0.00,829.000000,,2013-05-12 19:01:00,
2013-05-12 13:32:00,65.0,34.0,-100.00,SW,232,11.0,17.0,32,0.00,,,-99.99,704.000000,,2013-05-12 19:32:00,
2013-05-12 13:42:00,65.0,34.0,-100.00,SW,232,11.0,17.0,32,0.00,,,-99.99,704.000000,,2013-05-12 19:42:00,
2013-05-12 13:52:00,65.0,34.0,-100.00,SW,232,11.0,17.0,32,0.00,,,-99.99,704.000000,,2013-05-12 19:52:00,
2013-05-12 14:02:00,65.0,34.0,-100.00,SW,232,11.0,17.0,32,0.00,,,-99.99,704.000000,,2013-05-12 20:02:00,
2013-05-12 14:32:00,68.0,34.0,-100.00,SW,230,15.0,29.0,28,0.00,,,0.00,971.000000,,2013-05-12 20:32:00,
2013-05-12 14:42:00,68.0,34.0,-100.00,SW,230,15.0,29.0,28,0.00,,,0.00,971.000000,,2013-05-12 20:42:00,
2013-05-12 14:52:00,68.0,34.0,-100.00,SW,230,15.0,29.0,28,0.00,,,0.00,971.000000,,2013-05-12 20:52:00,
2013-05-12 15:01:00,68.0,34.0,-100.00,SW,230,15.0,29.0,28,0.00,,,0.00,971.000000,,2013-05-12 21:01:00,
2013-05-12 15:33:00,69.0,32.0,-100.00,SW,225,20.0,32.0,25,0.00,,,0.00,1022.000000,,2013-05-12 21:33:00,
2013-05-12 15:42:00,69.0,32.0,-100.00,SW,225,20.0,32.0,25,0.00,,,0.00,1022.000000,,2013-05-12 21:42:00,
2013-05-12 15:53:00,69.0,32.0,-100.00,SW,225,20.0,32.0,25,0.00,,,0.00,1022.000000,,2013-05-12 21:53:00,
2013-05-12 16:02:00,69.0,32.0,-100.00,SW,225,20.0,32.0,25,0.00,,,0.00,1022.000000,,2013-05-12 22:02:00,
2013-05-12 16:33:00,67.0,29.0,-100.00,SW,227,21.0,34.0,24,0.00,,,0.00,806.000000,,2013-05-12 22:33:00,
2013-05-12 16:42:00,67.0,29.0,-100.00,SW,227,21.0,34.0,24,0.00,,,0.00,806.000000,,2013-05-12 22:42:00,
2013-05-12 16:52:00,67.0,29.0,-100.00,SW,227,21.0,34.0,24,0.00,,,0.00,806.000000,,2013-05-12 22:52:00,
2013-05-12 17:02:00,67.0,29.0,-100.00,SW,227,21.0,34.0,24,0.00,,,0.00,806.000000,,2013-05-12 23:02:00,
2013-05-12 17:32:00,68.0,31.0,-100.00,WSW,237,16.0,31.0,25,0.00,,,0.00,474.000000,,2013-05-12 23:32:00,
2013-05-12 17:42:00,68.0,31.0,-100.00,WSW,237,16.0,31.0,25,0.00,,,0.00,474.000000,,2013-05-12 23:42:00,
2013-05-12 17:52:00,68.0,31.0,-100.00,WSW,237,16.0,31.0,25,0.00,,,0.00,474.000000,,2013-05-12 23:52:00,
2013-05-12 18:01:00,68.0,31.0,-100.00,WSW,237,16.0,31.0,25,0.00,,,0.00,474.000000,,2013-05-13 00:01:00,
2013-05-12 18:32:00,68.0,28.0,-100.00,WSW,246,15.0,27.0,22,0.00,,,0.00,395.000000,,2013-05-13 00:32:00,
2013-05-12 18:42:00,68.0,28.0,-100.00,WSW,246,15.0,27.0,22,0.00,,,0.00,395.000000,,2013-05-13 00:42:00,
2013-05-12 18:52:00,68.0,28.0,-100.00,WSW,246,15.0,27.0,22,0.00,,,0.00,395.000000,,2013-05-13 00:52:00,
2013-05-12 19:01:00,68.0,28.0,-100.00,WSW,246,15.0,27.0,22,0.00,,,0.00,395.000000,,2013-05-13 01:01:00,
2013-05-12 19:32:00,67.0,36.0,-100.00,West,281,12.0,21.0,32,0.00,,,0.00,99.000000,,2013-05-13 01:32:00,
2013-05-12 19:42:00,67.0,36.0,-100.00,West,281,12.0,21.0,32,0.00,,,0.00,99.000000,,2013-05-13 01:42:00,
2013-05-12 19:52:00,67.0,36.0,-100.00,West,281,12.0,21.0,32,0.00,,,0.00,99.000000,,2013-05-13 01:52:00,
2013-05-12 20:01:00,67.0,36.0,-100.00,West,281,12.0,21.0,32,0.00,,,0.00,99.000000,,2013-05-13 02:01:00,
2013-05-12 20:32:00,60.0,37.0,-100.00,WNW,287,16.0,22.0,42,0.00,,,0.00,84.000000,,2013-05-13 02:32:00,
2013-05-12 20:42:00,60.0,37.0,-100.00,WNW,287,16.0,22.0,42,0.00,,,0.00,84.000000,,2013-05-13 02:42:00,
2013-05-12 20:52:00,60.0,37.0,-100.00,WNW,287,16.0,22.0,42,0.00,,,0.00,84.000000,,2013-05-13 02:52:00,
2013-05-12 21:01:00,60.0,37.0,-100.00,WNW,287,16.0,22.0,42,0.00,,,0.00,84.000000,,2013-05-13 03:01:00,
2013-05-12 21:33:00,57.0,38.0,-100.00,WNW,298,16.0,22.0,49,0.00,,,0.00,24.000000,,2013-05-13 03:33:00,
2013-05-12 21:42:00,57.0,38.0,-100.00,WNW,298,16.0,22.0,49,0.00,,,0.00,24.000000,,2013-05-13 03:42:00,
2013-05-12 21:53:00,57.0,38.0,-100.00,WNW,298,16.0,22.0,49,0.00,,,0.00,24.000000,,2013-05-13 03:53:00,
2013-05-12 22:02:00,57.0,38.0,-100.00,WNW,298,16.0,22.0,49,0.00,,,0.00,24.000000,,2013-05-13 04:02:00,
2013-05-12 22:33:00,56.0,40.0,-100.00,WNW,287,10.0,19.0,55,0.00,,,0.00,0.000000,,2013-05-13 04:33:00,
2013-05-12 22:42:00,56.0,40.0,-100.00,WNW,287,10.0,19.0,55,0.00,,,0.00,0.000000,,2013-05-13 04:42:00,
2013-05-12 22:52:00,56.0,40.0,-100.00,WNW,287,10.0,19.0,55,0.00,,,0.00,0.000000,,2013-05-13 04:52:00,
2013-05-12 23:02:00,56.0,40.0,-100.00,WNW,287,10.0,19.0,55,0.00,,,0.00,0.000000,,2013-05-13 05:02:00,
2013-05-12 23:32:00,55.0,40.0,-100.00,WNW,294,15.0,22.0,57,0.00,,,0.00,0.000000,,2013-05-13 05:32:00,
2013-05-12 23:42:00,55.0,40.0,-100.00,WNW,294,15.0,22.0,57,0.00,,,0.00,0.000000,,2013-05-13 05:42:00,
2013-05-12 23:52:00,55.0,40.0,-100.00,WNW,294,15.0,22.0,57,0.00,,,0.00,0.000000,,2013-05-13 05:52:00,